George, South Africa

12:54 AM SAST on May 26, 2017 (GMT +0200)
George

Weather History for FAGG - January, 2015

Change the Weather History Date:

Sunday, January 25, 2015

  Actual Average Record
Temperature  
Mean Temperature 72 °F -  
Max Temperature 77 °F 74 °F 77 °F (2015)
Min Temperature 68 °F 59 °F 59 °F (2017)
Cooling Degree Days 8    
Growing Degree Days 22 (Base 50)    
Moisture  
Dew Point 65 °F    
Average Humidity 78    
Maximum Humidity 100    
Minimum Humidity 56    
Precipitation  
Precipitation 0.00 in - - ()
Sea Level Pressure  
Sea Level Pressure 29.83 in    
Wind  
Wind Speed 6 mph ()    
Max Wind Speed 13 mph    
Max Gust Speed -    
Visibility 7.4 miles    
Events      
Averages and records for this station are not official NWS values.
T = Trace of Precipitation, MM = Missing Value Source: Averaged Metar Reports

Daily Weather History Graph

Daily Weather History Graph

Search for Another Location

Airport or City:

Trip Planner

Search our weather history database for the weather conditions in past years. The results will help you decide how hot, cold, wet, or windy it might be!

Date:

Astronomy

Jan. 25, 2015 Rise Set
Actual Time 5:44 AM SAST 7:40 PM SAST
Civil Twilight 5:16 AM SAST 8:08 PM SAST
Nautical Twilight 4:43 AM SAST 8:41 PM SAST
Astronomical Twilight 4:07 AM SAST 9:17 PM SAST
Moon 11:09 AM SAST 11:01 PM SAST
Length of Visible Light 14h 51m
Length of Day
13h 56m
Waxing Crescent, 30% of the Moon is Illuminated
Jan 25
Waxing Crescent
Jan 27
First Quarter
Feb 4
Full
Feb 12
Last Quarter
Feb 19
New

Hourly Weather History & Observations

Time (SAST) Temp. Dew Point Humidity Pressure Visibility Wind Dir Wind Speed Gust Speed Precip Events Conditions
12:00 AM 73.4 °F 68.0 °F 83% 29.80 in 6.2 mi West 4.6 mph - N/A   Mostly Cloudy
1:00 AM 73.4 °F 66.2 °F 78% 29.80 in 6.2 mi West 6.9 mph - N/A   Mostly Cloudy
2:00 AM 73 °F 67 °F 77% 29.78 in 12 mi South 12.7 mph - -   Overcast
2:00 AM 71.6 °F 68.0 °F 88% 29.80 in 6.2 mi South 10.4 mph - N/A   Mostly Cloudy
3:00 AM 68.0 °F 68.0 °F 100% 29.80 in 4.3 mi SW 5.8 mph - N/A   Mostly Cloudy
4:00 AM 68.0 °F 68.0 °F 100% 29.77 in 4.3 mi West 4.6 mph - N/A   Overcast
5:00 AM 69 °F 67 °F 92% 29.79 in 12 mi WSW 5.8 mph - -   Mostly Cloudy
5:00 AM 68.0 °F 66.2 °F 94% 29.80 in 6.2 mi WSW 3.5 mph - N/A   Mostly Cloudy
6:00 AM 69.8 °F 62.6 °F 78% 29.83 in 6.2 mi WSW 5.8 mph - N/A   Mostly Cloudy
7:00 AM 69.8 °F 62.6 °F 78% 29.83 in 6.2 mi WSW 6.9 mph - N/A   Mostly Cloudy
8:00 AM 69 °F 64 °F 79% 29.83 in 12 mi WSW 5.8 mph - -   Mostly Cloudy
8:00 AM 69.8 °F 64.4 °F 83% 29.83 in 6.2 mi WSW 6.9 mph - N/A   Mostly Cloudy
9:00 AM 71.6 °F 62.6 °F 73% 29.83 in 6.2 mi WSW 3.5 mph - N/A   Mostly Cloudy
10:00 AM 73.4 °F 64.4 °F 73% 29.83 in 6.2 mi Variable 2.3 mph - N/A   Mostly Cloudy
11:00 AM 75 °F 64 °F 61% 29.82 in 12 mi South 6.9 mph - -   Partly Cloudy
11:00 AM 75.2 °F 64.4 °F 69% 29.83 in 6.2 mi South 8.1 mph - N/A   Scattered Clouds
12:00 PM 75.2 °F 64.4 °F 69% 29.83 in 6.2 mi SSE 9.2 mph - N/A   Partly Cloudy
1:00 PM 75.2 °F 64.4 °F 69% 29.83 in 6.2 mi SE 8.1 mph - N/A   Partly Cloudy
2:00 PM 76 °F 63 °F 56% 29.83 in 12 mi SSE 10.4 mph - -   Scattered Clouds
2:00 PM 77.0 °F 64.4 °F 65% 29.83 in 6.2 mi SSE 10.4 mph - N/A   Partly Cloudy
3:00 PM 77.0 °F 64.4 °F 65% 29.83 in 6.2 mi South 9.2 mph - N/A   Partly Cloudy
4:00 PM 75.2 °F 64.4 °F 69% 29.83 in 6.2 mi South 8.1 mph - N/A   Scattered Clouds
5:00 PM 74 °F 66 °F 69% 29.83 in 12 mi South 8.1 mph - -   Partly Cloudy
5:00 PM 73.4 °F 64.4 °F 73% 29.83 in 6.2 mi South 8.1 mph - N/A   Partly Cloudy
6:00 PM 71.6 °F 62.6 °F 73% 29.83 in 6.2 mi South 9.2 mph - N/A   Scattered Clouds
7:00 PM 69.8 °F 64.4 °F 83% 29.83 in 6.2 mi South 8.1 mph - N/A   Mostly Cloudy
8:00 PM 69 °F 65 °F 81% 29.88 in 12 mi SSE 5.8 mph - -   Mostly Cloudy
8:00 PM 69.8 °F 64.4 °F 83% 29.86 in 6.2 mi SSE 4.6 mph - N/A   Mostly Cloudy
9:00 PM 69.8 °F 64.4 °F 83% 29.89 in 6.2 mi SSE 4.6 mph - N/A   Overcast
10:00 PM 68.0 °F 66.2 °F 94% 29.89 in 6.2 mi SE 3.5 mph - N/A   Overcast
11:00 PM 68.0 °F 64.4 °F 88% 29.92 in 6.2 mi ENE 3.5 mph - N/A   Partly Cloudy